Date String (YYYY-MM-DD hh:mm:ss) UTC,Instrument flags,Ambient pressure (hPa),Sample flow (lpm),Bypass flow (lpm),Sample temperature (°C),Ambient temperature (°C),ASC tube jacket temperature (°C),LED temperature (°C),Box temperature (°C),Sample RH (%),Span deviation,Mass concentration (μg/m³),Mass concentration (μg/m³),Mass concentration (μg/m³)
DateTimeUTC,F1_M11,P_M11,Q1_M11,Q2_M11,T1_M11,T2_M11,T3_M11,T4_M11,T5_M11,U1_M11,ZSPAN_M11,X0_M11,X2_M11,X1_M11
2021-12-21 04:00:00,,0824.9,4.99,0.00,24.9,23.9,00.0,33.9,26.6,09.0,0000.0,0026.37,0007.98,0005.57
2021-12-21 04:01:00,,0824.9,5.00,0.00,24.9,23.9,00.0,33.9,26.6,09.0,0000.0,0025.45,0007.97,0005.56
2021-12-21 04:02:00,,0824.9,5.01,0.00,24.8,23.9,00.0,33.9,26.6,09.0,0000.0,0025.59,0007.92,0005.56
2021-12-21 04:03:00,,0824.9,5.00,0.00,24.8,23.9,00.0,33.9,26.6,09.0,0000.0,0028.16,0007.92,0005.58
2021-12-21 04:04:00,,0825.0,5.01,0.00,24.8,23.9,00.0,33.8,26.6,09.0,0000.0,0028.44,0007.86,0005.56
2021-12-21 04:05:00,,0825.1,4.99,0.00,24.8,23.9,00.0,33.8,26.6,09.0,0000.0,0028.46,0007.86,0005.54
2021-12-21 04:06:00,,0825.1,5.00,0.00,24.8,23.9,00.0,33.8,26.5,08.9,0000.0,0029.23,0007.92,0005.53
2021-12-21 04:07:00,,0825.0,5.01,0.00,24.8,23.9,00.0,33.8,26.5,09.0,0000.0,0033.12,0007.86,0005.51
2021-12-21 04:08:00,,0824.9,4.99,0.00,24.8,23.8,00.0,33.8,26.4,09.1,0000.0,0032.44,0007.84,0005.48
2021-12-21 04:09:00,,0824.9,5.01,0.00,24.7,23.8,00.0,33.8,26.4,09.1,0000.0,0032.22,0007.83,0005.46
2021-12-21 04:10:00,,0824.9,4.99,0.00,24.7,23.8,00.0,33.8,26.4,09.1,0000.0,0031.43,0007.86,0005.45
2021-12-21 04:11:00,,0824.9,5.01,0.00,24.7,23.7,00.0,33.8,26.4,09.2,0000.0,0032.12,0007.86,0005.45
2021-12-21 04:12:00,,0824.9,4.98,0.00,24.7,23.7,00.0,33.8,26.4,09.2,0000.0,0031.61,0007.82,0005.44
2021-12-21 04:13:00,,0825.0,5.01,0.00,24.7,23.7,00.0,33.7,26.3,09.2,0000.0,0031.06,0007.82,0005.46
2021-12-21 04:14:00,,0825.0,4.99,0.00,24.6,23.6,00.0,33.7,26.3,09.2,0000.0,0028.67,0007.86,0005.47
2021-12-21 04:15:00,,0824.9,5.00,0.00,24.6,23.6,00.0,33.7,26.2,09.1,0000.0,0028.28,0007.94,0005.49
2021-12-21 04:16:00,,0824.9,4.99,0.00,24.5,23.6,00.0,33.7,26.2,09.1,0000.0,0028.64,0008.00,0005.50
2021-12-21 04:17:00,,0824.9,5.02,0.00,24.5,23.6,00.0,33.7,26.3,09.1,0000.9,0027.31,0007.98,0005.49
2021-12-21 04:18:00,,0824.9,5.00,0.00,24.5,23.6,00.0,33.7,26.3,09.1,0000.8,0024.36,0008.11,0005.50
2021-12-21 04:19:00,,0824.8,5.01,0.00,24.5,23.6,00.0,33.6,26.3,09.2,0000.9,0025.54,0008.16,0005.52
2021-12-21 04:20:00,,0824.7,5.00,0.00,24.5,23.6,00.0,33.6,26.3,09.3,0001.3,0025.95,0008.13,0005.54
2021-12-21 04:21:00,,0824.7,4.99,0.00,24.5,23.6,00.0,33.6,26.3,09.3,0002.9,0025.94,0008.19,0005.55
2021-12-21 04:22:00,,0824.7,4.99,0.00,24.5,23.6,00.0,33.6,26.3,09.4,0002.9,0026.20,0008.20,0005.56
2021-12-21 04:23:00,,0824.7,5.02,0.00,24.5,23.7,00.0,33.6,26.3,09.5,0002.7,0026.76,0008.20,0005.58
2021-12-21 04:24:00,,0824.8,4.99,0.00,24.5,23.6,00.0,33.6,26.3,09.5,0003.5,0026.84,0008.23,0005.59
2021-12-21 04:25:00,,0824.9,5.01,0.00,24.5,23.6,00.0,33.6,26.3,09.6,0003.4,0027.95,0008.27,0005.61
2021-12-21 04:26:00,,0824.9,4.99,0.00,24.5,23.6,00.0,33.6,26.3,09.6,0000.3,0028.94,0008.26,0005.62
2021-12-21 04:27:00,,0824.9,5.01,0.00,24.5,23.6,00.0,33.6,26.3,09.6,0000.0,0028.77,0008.21,0005.63
2021-12-21 04:28:00,,0824.9,4.99,0.00,24.5,23.6,00.0,33.5,26.3,09.6,0000.0,0030.72,0008.24,0005.65
2021-12-21 04:29:00,,0824.8,5.00,0.00,24.5,23.6,00.0,33.5,26.3,09.6,0000.0,0031.58,0008.17,0005.67
2021-12-21 04:30:00,,0824.9,5.00,0.00,24.5,23.6,00.0,33.5,26.3,09.7,0000.0,0031.28,0008.15,0005.68
2021-12-21 04:31:00,,0824.9,4.99,0.00,24.5,23.6,00.0,33.5,26.3,09.7,0000.0,0030.33,0008.17,0005.68
2021-12-21 04:32:00,,0824.9,4.99,0.00,24.5,23.6,00.0,33.5,26.3,09.7,0000.0,0029.51,0008.17,0005.68
2021-12-21 04:33:00,,0824.8,5.01,0.00,24.5,23.6,00.0,33.5,26.3,09.7,0000.0,0028.41,0008.16,0005.68
2021-12-21 04:34:00,,0824.8,4.99,0.00,24.5,23.6,00.0,33.5,26.3,09.7,0000.0,0027.30,0008.19,0005.70
2021-12-21 04:35:00,,0824.9,5.00,0.00,24.5,23.6,00.0,33.5,26.2,09.7,0000.0,0028.42,0008.25,0005.70
2021-12-21 04:36:00,,0825.0,4.99,0.00,24.5,23.6,00.0,33.5,26.2,09.7,0000.0,0029.44,0008.21,0005.71
2021-12-21 04:37:00,,0825.2,5.00,0.00,24.5,23.6,00.0,33.5,26.2,09.6,0000.0,0030.30,0008.25,0005.70
2021-12-21 04:38:00,,0825.1,5.00,0.00,24.4,23.6,00.0,33.5,26.1,09.6,0000.0,0030.58,0008.30,0005.70
2021-12-21 04:39:00,,0825.2,4.99,0.00,24.4,23.5,00.0,33.5,26.1,09.7,0000.0,0030.68,0008.27,0005.69
2021-12-21 04:40:00,,0825.1,5.00,0.00,24.4,23.5,00.0,33.5,26.0,09.6,0000.0,0029.68,0008.19,0005.68
2021-12-21 04:41:00,,0825.1,5.01,0.00,24.4,23.4,00.0,33.4,26.0,09.6,0000.0,0028.75,0008.20,0005.68
2021-12-21 04:42:00,,0825.0,4.99,0.00,24.3,23.4,00.0,33.4,26.1,09.7,0000.0,0029.59,0008.24,0005.69
2021-12-21 04:43:00,,0824.9,4.99,0.00,24.4,23.4,00.0,33.4,26.1,09.6,0000.0,0030.08,0008.27,0005.68
2021-12-21 04:44:00,,0824.9,4.99,0.00,24.4,23.5,00.0,33.4,26.1,09.7,0000.0,0030.55,0008.29,0005.69
2021-12-21 04:45:00,,0824.8,5.01,0.00,24.4,23.5,00.0,33.4,26.1,09.7,0000.0,0031.09,0008.32,0005.68
2021-12-21 04:46:00,,0824.8,4.99,0.00,24.4,23.5,00.0,33.4,26.1,09.7,0000.0,0030.23,0008.32,0005.68
2021-12-21 04:47:00,,0824.9,5.00,0.00,24.3,23.5,00.0,33.4,26.0,09.8,0000.0,0028.50,0008.27,0005.68
2021-12-21 04:48:00,,0824.9,5.01,0.00,24.3,23.4,00.0,33.4,26.0,09.9,0000.0,0026.35,0008.17,0005.68
2021-12-21 04:49:00,,0824.9,5.00,0.00,24.3,23.4,00.0,33.3,26.0,09.9,0000.0,0026.60,0008.15,0005.69
2021-12-21 04:50:00,,0825.0,5.00,0.00,24.3,23.4,00.0,33.3,26.0,09.9,0000.8,0026.50,0008.20,0005.72
2021-12-21 04:51:00,,0824.9,4.99,0.00,24.2,23.3,00.0,33.3,25.9,09.9,0000.7,0025.47,0008.28,0005.74
2021-12-21 04:52:00,,0824.9,5.02,0.00,24.2,23.3,00.0,33.3,25.9,09.9,0000.0,0025.08,0008.32,0005.76
2021-12-21 04:53:00,,0824.8,4.99,0.00,24.2,23.3,00.0,33.3,25.9,09.9,0000.0,0023.59,0008.31,0005.77
2021-12-21 04:54:00,,0824.8,5.00,0.00,24.2,23.3,00.0,33.3,25.9,09.9,0000.0,0022.89,0008.32,0005.81
2021-12-21 04:55:00,,0824.7,4.99,0.00,24.2,23.3,00.0,33.3,26.0,10.0,0000.0,0022.79,0008.32,0005.81
2021-12-21 04:56:00,,0824.7,5.00,0.00,24.2,23.3,00.0,33.3,25.9,10.0,0000.5,0023.51,0008.27,0005.82
2021-12-21 04:57:00,,0824.6,4.99,0.00,24.2,23.3,00.0,33.2,25.9,10.1,0000.0,0025.29,0008.25,0005.82
2021-12-21 04:58:00,,0824.7,5.01,0.00,24.2,23.3,00.0,33.2,26.0,10.1,0000.0,0026.74,0008.31,0005.83
2021-12-21 04:59:00,,0824.8,5.00,0.00,24.2,23.3,00.0,33.2,26.0,10.1,0000.0,0027.27,0008.36,0005.84
